This is the latest recevied weather packets stored in our database for station/object K5OBH. If no packets are shown the sender has not sent any weather packets the latest 10 day(s).
| Time | Temp. | Humidity | Pressure | Rain* | Wind** | Luminosity | Snow |
|---|---|---|---|---|---|---|---|
| 1777517368 | 15° C | 68% | 1017.1 hPa | 0 mm | - | 0 W/m² | - |
| 1777517067 | 15° C | 67% | 1017 hPa | 0 mm | - | 0 W/m² | - |
| 1777516764 | 15° C | 66% | 1017 hPa | 0 mm | - | 0 W/m² | - |
| 1777516460 | 15.56° C | 66% | 1017 hPa | 0 mm | - | 0 W/m² | - |
| 1777516155 | 15° C | 67% | 1017.2 hPa | 0 mm | - | 0 W/m² | - |
| 1777515853 | 15.56° C | 66% | 1016.9 hPa | 0 mm | - | 0 W/m² | - |
| 1777515549 | 15.56° C | 66% | 1016.9 hPa | 0 mm | - | 0 W/m² | - |
| 1777515247 | 15.56° C | 66% | 1017 hPa | 0 mm | - | 0 W/m² | - |
| 1777514942 | 15.56° C | 66% | 1017 hPa | 0 mm | - | 0 W/m² | - |
| 1777514639 | 15.56° C | 66% | 1016.9 hPa | 0 mm | - | 0 W/m² | - |
| 1777514336 | 15.56° C | 65% | 1016.8 hPa | 0 mm | - | 0 W/m² | - |
| 1777514033 | 15.56° C | 65% | 1016.7 hPa | 0 mm | - | 0 W/m² | - |
| 1777513730 | 16.11° C | 64% | 1016.8 hPa | 0 mm | - | 0 W/m² | - |
| 1777513427 | 16.11° C | 64% | 1016.6 hPa | 0 mm | - | 0 W/m² | - |
| 1777513123 | 16.11° C | 63% | 1016.4 hPa | 0 mm | - | 0 W/m² | - |
| 1777512819 | 16.11° C | 64% | 1015.9 hPa | 0 mm | - | 0 W/m² | - |
| 1777512516 | 16.11° C | 63% | 1016 hPa | 0 mm | - | 0 W/m² | - |
| 1777512213 | 16.11° C | 63% | 1015.9 hPa | 0 mm | - | 1 W/m² | - |
| 1777511911 | 16.67° C | 61% | 1015.9 hPa | 0 mm | - | 2 W/m² | - |
| 1777511608 | 16.67° C | 61% | 1015.8 hPa | 0 mm | - | 4 W/m² | - |
| 1777511306 | 16.67° C | 61% | 1015.5 hPa | 0 mm | - | 6 W/m² | - |
| 1777511001 | 16.67° C | 61% | 1015.7 hPa | 0 mm | - | 9 W/m² | - |
| 1777510698 | 17.22° C | 61% | 1015.6 hPa | 0 mm | - | 12 W/m² | - |
| 1777510394 | 17.22° C | 61% | 1015.4 hPa | 0 mm | - | 16 W/m² | - |
| 1777510090 | 17.22° C | 60% | 1015.4 hPa | 0 mm | - | 18 W/m² | - |
* Rain latest hour (hover to see other rain measurements)
** Current wind speed in m/s (hover to see current wind gust speed)